www.pogodaiklimat.ru

Погода и климат >> Архив погоды >> Марокко >> Тетуан


ПОГОДА в Тетуане

  • Прогноз погоды в Тетуане
  • Монитор погоды в Тетуане

АРХИВ ПОГОДЫ в Тетуане

Время (UTC), дата Ветер
(напр.,м/с)
 
Видим.   Явления Облачность Т
(С)
Тd
(С)
f
(%)
Тe
(С)
Тes
(С)
Комфортность P
(гПа)
Po
(гПа)
Тmin
(С)
Tmax
(С)
R
(мм)
R24
(мм)
S
(см)
06 15.09 ЮЗ 2 1200 м дымка 10/10 90 м
[St]
+21.5 +20.0 91 +27 +27 душно 1017.1 1015.9 +21.2 0.2
09 15.09 штиль 0 4000 м дымка 4/4 300 м
[St]
+24.9 +20.2 75 +31 +36 очень
душно
1017.7 1016.5
12 15.09 В 5 6000 м 8/8 180 м
[St]
+24.4 +19.5 74 +30 +31 очень
душно
1018.2 1017.0
15 15.09 В 4 6000 м 4/4 240 м
[St]
+24.9 +19.3 71 +30 +34 душно 1017.3 1016.1
18 15.09 В 3 3000 м дымка 3/3 600 м
[Sc]
+21.5 +19.1 86 +26 +26 душно 1017.2 1016.0 +26.2
21 15.09 СВ 1 500 м туман 10/10 90 м
[St]
+20.1 +18.8 92 +25 +25 комфорт 1018.5 1017.3
00 16.09 В 1 400 м туман 10/10 90 м
[St]
+19.9 +18.7 93 +24 +24 комфорт 1018.8 1017.6
03 16.09 З 1 400 м сильные жидкие осадки {метель} 10/10 90 м
[St]
+19.2 +18.2 94 +22 +22 комфорт 1018.1 1016.9
06 16.09 В 1 700 м туман 10/10 150 м
[St]
+19.0 +18.0 94 +22 +22 комфорт 1018.3 1017.1 +19.0
09 16.09 Ю 1 2000 м дымка {туман} 4/4 180 м
[St]
+19.6 +18.6 94 +23 +28 комфорт 1019.2 1018.0
12 16.09 В 4 6000 м 8/8 240 м
[St]
+23.7 +18.4 72 +28 +30 душно 1018.9 1017.7
15 16.09 В 5 10 км 3/0
[Ci sp]
+25.1 +17.8 64 +29 +34 душно 1016.8 1015.6
18 16.09 В 4 10 км 4/0
[Ci sp]
+21.5 +17.9 80 +26 +26 душно 1016.8 1015.6 +25.7
21 16.09 В 4 6000 м 6/5 150 м
[St Ci sp]
+20.1 +17.9 87 +23 +23 комфорт 1017.5 1016.3
00 17.09 ЮВ 2 6000 м 8/8 150 м
[St]
+20.3 +18.1 87 +25 +25 комфорт 1017.4 1016.2
03 17.09 В 3 6000 м 8/8 150 м
[St]
+20.6 +18.0 85 +25 +25 комфорт 1015.6 1014.4
06 17.09 С 2 6000 м 9/9 180 м
[St]
+21.1 +18.7 86 +25 +25 комфорт 1015.4 1014.2 +19.9
09 17.09 В 2 5000 м 9/9 180 м
[St]
+21.3 +19.0 87 +26 +27 душно 1016.4 1015.2
12 17.09 СВ 4 6000 м 8/8 300 м
[Cu med, cong]
+25.7 +19.3 68 +31 +33 очень
душно
1015.9 1014.7
15 17.09 В 5 6000 м 10/10 480 м
[Cu Sc]
+24.8 +19.0 70 +30 +30 душно 1015.0 1013.8
18 17.09 В 3 6000 м 9/9 300 м
[Sc]
+23.5 +19.4 78 +29 +29 душно 1014.1 1012.9 +26.7
21 17.09 В 2 5000 м 10/10 330 м
[Sc]
+22.7 +19.7 83 +29 +29 очень
душно
1015.1 1013.9
00 18.09 В 1 6000 м 10/10 400 м
[Sc]
+22.4 +19.6 84 +28 +28 душно 1015.4 1014.2
03 18.09 С 1 5000 м 10/10 400 м
[Sc]
+20.9 +19.0 89 +26 +26 душно 1014.7 1013.5
06 18.09 штиль 0 5000 м 10/10 300 м
[Sc]
+21.8 +19.0 84 +27 +27 душно 1015.0 1013.8 +20.7
09 18.09 З 5 7000 м 10/10 700 м
[Sc]
+23.2 +17.6 71 +29 +29 душно 1016.3 1015.1
12 18.09 СЗ 5 10 км 4/0
[Ci sp]
+28.2 +14.8 44 +31 +38 душно 1015.7 1014.5
15 18.09 В 4 10 км 4/1 700 м
[Cu hum Ci sp]
+27.3 +17.8 56 +32 +36 очень
душно
1015.0 1013.8
18 18.09 СВ 1 10 км ясно +25.3 +15.9 56 +29 +29 душно 1015.0 1013.8 +28.4
21 18.09 ЮЗ 5 10 км ясно +23.4 +13.8 55 +27 +27 душно 1015.8 1014.6
00 19.09 ЮЗ 5 10 км ясно +22.0 +13.4 58 +25 +25 комфорт 1015.7 1014.5
03 19.09 ЮЗ 5 10 км ясно +20.5 +14.2 67 +23 +23 комфорт 1015.2 1014.0
06 19.09 ЮЗ 4 10 км ясно +19.7 +14.7 73 +22 +22 комфорт 1015.7 1014.5 +17.7
12 19.09 В 5 10 км 4/0
[Ci sp]
+27.1 +13.8 44 +29 +36 жарко 1015.6 1014.4
15 19.09 В 5 10 км ясно +26.1 +16.6 56 +30 +34 душно 1014.9 1013.7
18 19.09 В 3 10 км 6/0
[Ci sp]
+23.1 +17.6 71 +28 +29 душно 1014.6 1013.4 +27.6
21 19.09 С 3 10 км 6/0
[Ci sp]
+21.6 +16.6 73 +25 +25 комфорт 1015.1 1013.9
00 20.09 СЗ 2 8000 м 9/4 180 м
[St Ci sp]
+20.1 +16.5 80 +24 +24 комфорт 1015.4 1014.2
03 20.09 С 3 6000 м 8/8 180 м
[St]
+19.6 +17.4 87 +22 +22 комфорт 1014.6 1013.4
06 20.09 СЗ 2 4000 м дымка 9/9 180 м
[St]
+19.4 +17.4 88 +22 +22 комфорт 1014.4 1013.2 +18.9
09 20.09 штиль 0 6000 м 8/3 300 м
[St Ci sp]
+23.3 +17.5 70 +29 +33 душно 1015.2 1014.0
12 20.09 В 3 6000 м 10/1 480 м
[Cu hum Ac trans Ci sp]
+24.4 +18.1 68 +29 +34 душно 1014.7 1013.5
15 20.09 СВ 2 5000 м 10/1 400 м
[Cu hum Ci sp]
+24.6 +18.5 69 +29 +35 душно 1013.7 1012.5
18 20.09 В 2 5000 м 9/4 300 м
[St Ci sp]
+22.9 +18.9 78 +29 +29 очень
душно
1013.8 1012.6 +25.8
21 20.09 В 1 5000 м 9/9 180 м
[St]
+21.4 +19.0 86 +26 +26 душно 1014.7 1013.5
00 21.09 Ю 3 5000 м 5/5 180 м
[St]
+20.5 +16.7 79 +24 +24 комфорт 1014.0 1012.8
03 21.09 З 2 5000 м 5/5 180 м
[St]
+20.1 +17.3 84 +24 +24 комфорт 1013.0 1011.8
06 21.09 ЮЗ 5 5000 м 5/5 180 м
[St]
+20.7 +16.1 75 +24 +24 комфорт 1013.2 1012.0 +18.9
09 21.09 ЮЗ 5 7000 м 9/3 480 м
[Cu med, cong Ci sp]
+22.3 +16.6 70 +27 +29 душно 1015.0 1013.8
12 21.09 В 4 10 км 8/0
[Ci sp]
+25.3 +16.4 58 +29 +37 душно 1014.2 1013.0
15 21.09 В 3 10 км 9/0
[Ac As Ci sp]
+24.1 +16.1 61 +27 +33 жарко 1013.6 1012.4
18 21.09 СВ 2 10 км 9/0
[Ac As Ci sp]
+22.5 +17.0 71 +27 +27 душно 1013.4 1012.2 +26.3
21 21.09 С 1 10 км 6/0
[Ac As Ci sp]
+22.0 +16.1 69 +26 +26 душно 1014.9 1013.7
00 22.09 ЮВ 1 10 км 4/0
[Ci sp]
+21.3 +14.7 66 +24 +24 комфорт 1014.9 1013.7
03 22.09 В 1 10 км 1/0
[Ci sp]
+19.7 +12.9 65 +23 +23 комфорт 1014.4 1013.2

 

Местоположение метеостанции Тетуан (Марокко): широта 35.58 долгота -5.33 высота над уровнем моря 10 м.

В архиве по умолчанию представлена погода в Тетуане за последнюю неделю. Архивные данные за месяц целиком и за предыдущие месяцы, начиная с января 2011 года, Вы можете получить, выбрав интересующий диапазон дат из раскрывающегося списка и нажав кнопку "Ввод!".


*Определитесь, кто Вы:
робот инопланетянин человек

Внимание! Время в таблицах - всемирное. Для получения местного времени необходимо прибавить поправку, которая равна 0 ч.

Смотрите также архив погоды в соседних городах и на ближайших метеорологических станциях:

Погода в Сеуте (Испания) (36 км)
Погода в Танжер порту (Марокко) (48 км)
Погода в Танжере (Марокко) (54 км)
Погода в Тарифе (Испания) (55 км)
Погода в Шавене (Марокко) (57 км)
Погода Гибралтаре (Гибралтар) (63 км)
Погода в Эль-Араише (Марокко) (85 км)
Погода в Вехер-де-ла-Фронтера (Испания) (94 км)
Погода в Эстепоне (Испания) (95 км)
Погода в Фуэнхироле (Испания) (124 км)

Пояснения к столбцам:

Ветер - указаны скорость ветра в м/с - средняя за 10 мин, порывы в срок и между сроками (в фигурных скобках) и направление, откуда дует ветер: С - северный, СВ - северо-восточный, В - восточный, ЮВ - юго-восточный, Ю - южный, ЮЗ - юго-западный, З - западный, СЗ - северо-западный.
Видимость - горизонтальная дальность видимости в метрах или километрах. При видимости от 1 до 10 км при отсутствии осадков обычно наблюдается дымка, при ухудшении видимости до 1 км и менее - туман. В сухую погоду видимость может ухудшаться дымом, пылью или мглою.
Явления - указаны атмосферные явления, наблюдавшиеся в срок или в последний час перед сроком; фигурными скобками обозначены явления, наблюдавшиеся между сроками (за 1-3 часа до срока); квадратными скобками обозначены град или гололедные отложения с указанием их диаметра в мм.
Облачность - указаны через наклонную черту общая и нижняя облачность в баллах и высота нижней границы облаков в метрах; квадратными скобками обозначены формы облаков: Ci - перистые, Cs - перисто-слоистые, Cc - перисто-кучевые, Ac - высококучевые, As - высокослоистые, Sc - слоисто-кучевые, Ns - слоисто-дождевые, Cu - кучевые, Cb - кучево-дождевые. Подробнее классификацию облаков см. в Атласе облаков (PDF).
T - Температура воздуха - температура, измеренная на высоте 2 м над землей.
Td - Температура точки росы - температура, при понижении до которой содержащийся в воздухе водяной пар достигнет насыщения.
f - Относительная влажность воздуха - влажноcть воздуха, измеренная на высоте 2 м над землей.
Te - Эффективная температура - температура, которую ощущает одетый по сезону человек в тени. Характеристика душности погоды. При расчете учитывается влияние влажности воздуха и скорости ветра на теплоощущения человека.
Tes - Эффективная температура на солнце - температура, которую ощущает человек, с поправкой на солнечный нагрев. Характеристика знойности погоды. Зависит от высоты солнца над горизонтом, облачности и скорости ветра. Ночью, в пасмурную погоду, а также при ветре 12 м/с и более поправка равна нулю.
P - Атмосферное давление - приведенное к уровню моря атмосферное давление.
Po - Атмосферное давление - измеренное на уровне метеостанции атмосферное давление.
Tmin - Минимальная температура - минимум температуры воздуха на высоте 2 м над землей.
Tmax - Максимальная температура - максимум температуры воздуха на высоте 2 м над землей.
R - Количество осадков - Количество выпавших осадков за период времени, мм. При наведении курсора мыши на число - период времени, за который выпало указанное количество осадков.
R24 - Количество осадков - Количество выпавших осадков за 24 часа, мм.
S - Снежный покров - Высота снежного покрова, см. При наведении курсора мыши на число - состояние снежного покрова и степень покрытия местности в баллах.